Location: Bosdarros
(43.2167°N, 0.3667°W)
Time: 03:30:32
(UTC+00:00)

Cosmos 2098 Rocket - Pass Details

Date: 22 April 2021
Orbit: 367 x 1178 km, 82.9° (Epoch: 15 May)

Event Time Altitude Azimuth Distance (km) Brightness Sun altitude
Rises 19:12:26 0° 353° (N) 3,952 7.6 -4.2°
Reaches altitude 10° 19:15:02 10° 355° (N) 3,045 7.0 -4.7°
Maximum altitude 19:22:23 75° 81° (E) 1,220 4.4 -5.9°
Drops below altitude 10° 19:29:39 10° 167° (SSE) 3,020 6.2 -7.1°
Sets 19:32:13 0° 169° (SSE) 3,917 6.8 -7.5°
